owner,sensor,date,latitude,longitude,vertical_datum,sea_water_practical_salinity,qcFlag 
DISL,ioos:station:DISL:PPTA:1,2013-02-01T00:00:00Z,30.2791,-87.5561,1.001,25.57,1111122 
DISL,ioos:station:DISL:PPTA:1,2013-02-01T00:30:00Z,30.2791,-87.5561,0.995,24.49,1111122 
DISL,ioos:station:DISL:PPTA:1,2013-02-01T01:00:00Z,30.2791,-87.5561,0.994,29.22,1111122 
DISL,ioos:station:DISL:PPTA:1,2013-02-01T01:30:00Z,30.2791,-87.5561,0.994,25.29,1111122 
DISL,ioos:station:DISL:PPTA:1,2013-02-01T02:00:00Z,30.2791,-87.5561,1.006,27.31,1111122 
DISL,ioos:station:DISL:PPTA:1,2013-02-01T02:30:00Z,30.2791,-87.5561,0.993,25.14,1111122 
DISL,ioos:station:DISL:PPTA:1,2013-02-01T03:00:00Z,30.2791,-87.5561,0.986,28.89,1111122 
DISL,ioos:station:DISL:PPTA:1,2013-02-01T03:30:00Z,30.2791,-87.5561,1.008,26.21,1111122 
DISL,ioos:station:DISL:PPTA:1,2013-02-01T04:00:00Z,30.2791,-87.5561,1.019,24.95,1111122 
DISL,ioos:station:DISL:PPTA:1,2013-02-01T04:30:00Z,30.2791,-87.5561,0.997,26.34,1111122 
DISL,ioos:station:DISL:PPTA:1,2013-02-01T05:00:00Z,30.2791,-87.5561,1.001,26.33,1111122 
DISL,ioos:station:DISL:PPTA:1,2013-02-01T05:30:00Z,30.2791,-87.5561,1.006,26.01,1111122 
DISL,ioos:station:DISL:PPTA:1,2013-02-01T06:00:00Z,30.2791,-87.5561,0.994,25.21,1111122 
DISL,ioos:station:DISL:PPTA:1,2013-02-01T06:30:00Z,30.2791,-87.5561,0.977,24.91,1111122 
DISL,ioos:station:DISL:PPTA:1,2013-02-01T07:00:00Z,30.2791,-87.5561,0.995,25.49,1111122 
DISL,ioos:station:DISL:PPTA:1,2013-02-01T07:30:00Z,30.2791,-87.5561,1.003,24.36,1111122 
DISL,ioos:station:DISL:PPTA:1,2013-02-01T08:00:00Z,30.2791,-87.5561,0.99,24.17,1111122 
DISL,ioos:station:DISL:PPTA:1,2013-02-01T08:30:00Z,30.2791,-87.5561,0.98,24.27,1111122 
DISL,ioos:station:DISL:PPTA:1,2013-02-01T09:00:00Z,30.2791,-87.5561,0.984,24.44,1111122 
DISL,ioos:station:DISL:PPTA:1,2013-02-01T09:30:00Z,30.2791,-87.5561,0.959,24.89,1111122 
DISL,ioos:station:DISL:PPTA:1,2013-02-01T10:00:00Z,30.2791,-87.5561,0.928,25.59,1111122 
DISL,ioos:station:DISL:PPTA:1,2013-02-01T10:30:00Z,30.2791,-87.5561,0.936,24.3,1111122 
DISL,ioos:station:DISL:PPTA:1,2013-02-01T11:00:00Z,30.2791,-87.5561,0.96,24.3,1111122 
DISL,ioos:station:DISL:PPTA:1,2013-02-01T11:30:00Z,30.2791,-87.5561,0.958,24.16,1111122 
DISL,ioos:station:DISL:PPTA:1,2013-02-01T12:00:00Z,30.2791,-87.5561,0.954,25.75,1111122 
DISL,ioos:station:DISL:PPTA:1,2013-02-01T12:30:00Z,30.2791,-87.5561,0.961,24.3,1111122 
DISL,ioos:station:DISL:PPTA:1,2013-02-01T13:00:00Z,30.2791,-87.5561,0.964,24.19,1111122 
DISL,ioos:station:DISL:PPTA:1,2013-02-01T13:30:00Z,30.2791,-87.5561,0.94,24.12,1111122 
DISL,ioos:station:DISL:PPTA:1,2013-02-01T14:00:00Z,30.2791,-87.5561,0.961,25.47,1111122 
DISL,ioos:station:DISL:PPTA:1,2013-02-01T14:30:00Z,30.2791,-87.5561,0.955,24.75,1111122 
DISL,ioos:station:DISL:PPTA:1,2013-02-01T15:00:00Z,30.2791,-87.5561,0.954,24.38,1111122 
DISL,ioos:station:DISL:PPTA:1,2013-02-01T15:30:00Z,30.2791,-87.5561,0.964,24.19,1111122 
DISL,ioos:station:DISL:PPTA:1,2013-02-01T16:00:00Z,30.2791,-87.5561,0.981,23.94,1111122 
DISL,ioos:station:DISL:PPTA:1,2013-02-01T16:30:00Z,30.2791,-87.5561,1.006,23.85,1111122 
DISL,ioos:station:DISL:PPTA:1,2013-02-01T17:00:00Z,30.2791,-87.5561,1.016,24.39,1111122 
DISL,ioos:station:DISL:PPTA:1,2013-02-01T17:30:00Z,30.2791,-87.5561,1.016,26.34,1111122 
DISL,ioos:station:DISL:PPTA:1,2013-02-01T18:00:00Z,30.2791,-87.5561,1.022,29.7,1111122 
DISL,ioos:station:DISL:PPTA:1,2013-02-01T18:30:00Z,30.2791,-87.5561,1.03,32.0,1111122 
DISL,ioos:station:DISL:PPTA:1,2013-02-01T19:00:00Z,30.2791,-87.5561,1.04,32.18,1111122 
DISL,ioos:station:DISL:PPTA:1,2013-02-01T19:30:00Z,30.2791,-87.5561,1.041,32.53,1111122 
DISL,ioos:station:DISL:PPTA:1,2013-02-01T20:00:00Z,30.2791,-87.5561,1.036,32.85,1111122 
DISL,ioos:station:DISL:PPTA:1,2013-02-01T20:30:00Z,30.2791,-87.5561,1.04,32.91,1111122 
DISL,ioos:station:DISL:PPTA:1,2013-02-01T21:00:00Z,30.2791,-87.5561,1.029,33.21,1111122 
DISL,ioos:station:DISL:PPTA:1,2013-02-01T21:30:00Z,30.2791,-87.5561,1.014,32.8,1111122 
DISL,ioos:station:DISL:PPTA:1,2013-02-01T22:00:00Z,30.2791,-87.5561,1.03,33.1,1111122 
DISL,ioos:station:DISL:PPTA:1,2013-02-01T22:30:00Z,30.2791,-87.5561,1.023,33.17,1111122 
DISL,ioos:station:DISL:PPTA:1,2013-02-01T23:00:00Z,30.2791,-87.5561,1.018,33.19,1111122 
DISL,ioos:station:DISL:PPTA:1,2013-02-01T23:30:00Z,30.2791,-87.5561,1.005,31.86,1111122 
DISL,ioos:station:DISL:PPTA:1,2013-02-02T00:00:00Z,30.2791,-87.5561,1.0,29.45,1111122 
DISL,ioos:station:DISL:PPTA:1,2013-02-02T00:30:00Z,30.2791,-87.5561,1.0,26.54,1111122 
DISL,ioos:station:DISL:PPTA:1,2013-02-02T01:00:00Z,30.2791,-87.5561,1.002,26.78,1111122 
DISL,ioos:station:DISL:PPTA:1,2013-02-02T01:30:00Z,30.2791,-87.5561,0.998,27.03,1111122 
DISL,ioos:station:DISL:PPTA:1,2013-02-02T02:00:00Z,30.2791,-87.5561,1.0,28.29,1111122 
DISL,ioos:station:DISL:PPTA:1,2013-02-02T02:30:00Z,30.2791,-87.5561,1.0,31.85,1111122 
DISL,ioos:station:DISL:PPTA:1,2013-02-02T03:00:00Z,30.2791,-87.5561,1.003,27.71,1111122 
DISL,ioos:station:DISL:PPTA:1,2013-02-02T03:30:00Z,30.2791,-87.5561,1.008,27.47,1111122 
DISL,ioos:station:DISL:PPTA:1,2013-02-02T04:00:00Z,30.2791,-87.5561,1.002,28.31,1111122 
DISL,ioos:station:DISL:PPTA:1,2013-02-02T04:30:00Z,30.2791,-87.5561,0.999,28.03,1111122 
DISL,ioos:station:DISL:PPTA:1,2013-02-02T05:00:00Z,30.2791,-87.5561,0.989,26.62,1111122 
DISL,ioos:station:DISL:PPTA:1,2013-02-02T05:30:00Z,30.2791,-87.5561,0.987,26.66,1111122 
DISL,ioos:station:DISL:PPTA:1,2013-02-02T06:00:00Z,30.2791,-87.5561,0.981,26.45,1111122 
DISL,ioos:station:DISL:PPTA:1,2013-02-02T06:30:00Z,30.2791,-87.5561,0.979,26.15,1111122 
DISL,ioos:station:DISL:PPTA:1,2013-02-02T07:00:00Z,30.2791,-87.5561,0.984,26.77,1111122 
DISL,ioos:station:DISL:PPTA:1,2013-02-02T07:30:00Z,30.2791,-87.5561,0.992,24.64,1111122 
DISL,ioos:station:DISL:PPTA:1,2013-02-02T08:00:00Z,30.2791,-87.5561,0.988,23.73,1111122 
DISL,ioos:station:DISL:PPTA:1,2013-02-02T08:30:00Z,30.2791,-87.5561,0.968,25.64,1111122 
DISL,ioos:station:DISL:PPTA:1,2013-02-02T09:00:00Z,30.2791,-87.5561,0.974,26.63,1111122 
DISL,ioos:station:DISL:PPTA:1,2013-02-02T09:30:00Z,30.2791,-87.5561,0.972,25.24,1111122 
DISL,ioos:station:DISL:PPTA:1,2013-02-02T10:00:00Z,30.2791,-87.5561,0.968,26.69,1111122 
DISL,ioos:station:DISL:PPTA:1,2013-02-02T10:30:00Z,30.2791,-87.5561,0.975,26.25,1111122 
DISL,ioos:station:DISL:PPTA:1,2013-02-02T11:00:00Z,30.2791,-87.5561,0.981,25.17,1111122 
DISL,ioos:station:DISL:PPTA:1,2013-02-02T11:30:00Z,30.2791,-87.5561,0.973,27.04,1111122 
DISL,ioos:station:DISL:PPTA:1,2013-02-02T12:00:00Z,30.2791,-87.5561,0.987,29.47,1111122 
DISL,ioos:station:DISL:PPTA:1,2013-02-02T12:30:00Z,30.2791,-87.5561,1.006,25.82,1111122 
DISL,ioos:station:DISL:PPTA:1,2013-02-02T13:00:00Z,30.2791,-87.5561,1.012,30.06,1111122 
DISL,ioos:station:DISL:PPTA:1,2013-02-02T13:30:00Z,30.2791,-87.5561,1.015,31.94,1111122 
DISL,ioos:station:DISL:PPTA:1,2013-02-02T14:00:00Z,30.2791,-87.5561,1.018,32.42,1111122 
DISL,ioos:station:DISL:PPTA:1,2013-02-02T14:30:00Z,30.2791,-87.5561,1.028,32.15,1111122 
DISL,ioos:station:DISL:PPTA:1,2013-02-02T15:00:00Z,30.2791,-87.5561,1.046,32.73,1111122 
DISL,ioos:station:DISL:PPTA:1,2013-02-02T15:30:00Z,30.2791,-87.5561,1.061,32.87,1111122 
DISL,ioos:station:DISL:PPTA:1,2013-02-02T16:00:00Z,30.2791,-87.5561,1.084,32.91,1111122 
DISL,ioos:station:DISL:PPTA:1,2013-02-02T16:30:00Z,30.2791,-87.5561,1.104,33.12,1111122 
DISL,ioos:station:DISL:PPTA:1,2013-02-02T17:00:00Z,30.2791,-87.5561,1.119,33.23,1111122 
DISL,ioos:station:DISL:PPTA:1,2013-02-02T17:30:00Z,30.2791,-87.5561,1.127,33.27,1111122 
DISL,ioos:station:DISL:PPTA:1,2013-02-02T18:00:00Z,30.2791,-87.5561,1.125,33.27,1111122 
DISL,ioos:station:DISL:PPTA:1,2013-02-02T18:30:00Z,30.2791,-87.5561,1.148,33.08,1111122 
DISL,ioos:station:DISL:PPTA:1,2013-02-02T19:00:00Z,30.2791,-87.5561,1.164,33.15,1111122 
DISL,ioos:station:DISL:PPTA:1,2013-02-02T19:30:00Z,30.2791,-87.5561,1.174,32.83,1111122 
DISL,ioos:station:DISL:PPTA:1,2013-02-02T20:00:00Z,30.2791,-87.5561,1.179,33.05,1111122 
DISL,ioos:station:DISL:PPTA:1,2013-02-02T20:30:00Z,30.2791,-87.5561,1.182,32.91,1111122 
DISL,ioos:station:DISL:PPTA:1,2013-02-02T21:00:00Z,30.2791,-87.5561,1.189,32.95,1111122 
DISL,ioos:station:DISL:PPTA:1,2013-02-02T21:30:00Z,30.2791,-87.5561,1.188,32.93,1111122 
DISL,ioos:station:DISL:PPTA:1,2013-02-02T22:00:00Z,30.2791,-87.5561,1.19,32.84,1111122 
DISL,ioos:station:DISL:PPTA:1,2013-02-02T22:30:00Z,30.2791,-87.5561,1.182,32.96,1111122 
DISL,ioos:station:DISL:PPTA:1,2013-02-02T23:00:00Z,30.2791,-87.5561,1.176,32.8,1111122 
DISL,ioos:station:DISL:PPTA:1,2013-02-02T23:30:00Z,30.2791,-87.5561,1.167,32.85,1111122 
DISL,ioos:station:DISL:PPTA:1,2013-02-03T00:00:00Z,30.2791,-87.5561,1.147,32.75,1111122 
DISL,ioos:station:DISL:PPTA:1,2013-02-03T00:30:00Z,30.2791,-87.5561,1.137,32.68,1111122 
DISL,ioos:station:DISL:PPTA:1,2013-02-03T01:00:00Z,30.2791,-87.5561,1.14,32.62,1111122 
DISL,ioos:station:DISL:PPTA:1,2013-02-03T01:30:00Z,30.2791,-87.5561,1.133,31.37,1111122 
DISL,ioos:station:DISL:PPTA:1,2013-02-03T02:00:00Z,30.2791,-87.5561,1.119,31.53,1111122 
DISL,ioos:station:DISL:PPTA:1,2013-02-03T02:30:00Z,30.2791,-87.5561,1.104,31.6,1111122 
DISL,ioos:station:DISL:PPTA:1,2013-02-03T03:00:00Z,30.2791,-87.5561,1.086,31.63,1111122 
DISL,ioos:station:DISL:PPTA:1,2013-02-03T03:30:00Z,30.2791,-87.5561,1.082,32.02,1111122 
DISL,ioos:station:DISL:PPTA:1,2013-02-03T04:00:00Z,30.2791,-87.5561,1.058,31.88,1111122 
DISL,ioos:station:DISL:PPTA:1,2013-02-03T04:30:00Z,30.2791,-87.5561,1.054,31.09,1111122 
DISL,ioos:station:DISL:PPTA:1,2013-02-03T05:00:00Z,30.2791,-87.5561,1.04,31.17,1111122 
DISL,ioos:station:DISL:PPTA:1,2013-02-03T05:30:00Z,30.2791,-87.5561,1.026,30.56,1111122 
DISL,ioos:station:DISL:PPTA:1,2013-02-03T06:00:00Z,30.2791,-87.5561,1.02,30.1,1111122 
DISL,ioos:station:DISL:PPTA:1,2013-02-03T06:30:00Z,30.2791,-87.5561,1.007,29.42,1111122 
DISL,ioos:station:DISL:PPTA:1,2013-02-03T07:00:00Z,30.2791,-87.5561,0.998,30.29,1111122 
DISL,ioos:station:DISL:PPTA:1,2013-02-03T07:30:00Z,30.2791,-87.5561,0.981,30.46,1111122 
DISL,ioos:station:DISL:PPTA:1,2013-02-03T08:00:00Z,30.2791,-87.5561,0.98,29.75,1111122 
DISL,ioos:station:DISL:PPTA:1,2013-02-03T08:30:00Z,30.2791,-87.5561,0.985,27.78,1111122 
DISL,ioos:station:DISL:PPTA:1,2013-02-03T09:00:00Z,30.2791,-87.5561,0.976,28.74,1111122 
DISL,ioos:station:DISL:PPTA:1,2013-02-03T09:30:00Z,30.2791,-87.5561,0.979,27.65,1111122 
DISL,ioos:station:DISL:PPTA:1,2013-02-03T10:00:00Z,30.2791,-87.5561,0.976,27.43,1111122 
DISL,ioos:station:DISL:PPTA:1,2013-02-03T10:30:00Z,30.2791,-87.5561,0.963,27.54,1111122 
DISL,ioos:station:DISL:PPTA:1,2013-02-03T11:00:00Z,30.2791,-87.5561,0.962,27.18,1111122 
DISL,ioos:station:DISL:PPTA:1,2013-02-03T11:30:00Z,30.2791,-87.5561,0.983,25.91,1111122 
DISL,ioos:station:DISL:PPTA:1,2013-02-03T12:00:00Z,30.2791,-87.5561,0.988,25.5,1111122 
DISL,ioos:station:DISL:PPTA:1,2013-02-03T12:30:00Z,30.2791,-87.5561,1.007,26.5,1111122 
DISL,ioos:station:DISL:PPTA:1,2013-02-03T13:00:00Z,30.2791,-87.5561,1.013,26.4,1111122 
DISL,ioos:station:DISL:PPTA:1,2013-02-03T13:30:00Z,30.2791,-87.5561,1.007,25.74,1111122 
DISL,ioos:station:DISL:PPTA:1,2013-02-03T14:00:00Z,30.2791,-87.5561,1.032,26.65,1111122 
DISL,ioos:station:DISL:PPTA:1,2013-02-03T14:30:00Z,30.2791,-87.5561,1.037,29.25,1111122 
DISL,ioos:station:DISL:PPTA:1,2013-02-03T15:00:00Z,30.2791,-87.5561,1.041,31.42,1111122 
DISL,ioos:station:DISL:PPTA:1,2013-02-03T15:30:00Z,30.2791,-87.5561,1.071,32.08,1111122 
DISL,ioos:station:DISL:PPTA:1,2013-02-03T16:00:00Z,30.2791,-87.5561,1.081,32.46,1111122 
DISL,ioos:station:DISL:PPTA:1,2013-02-03T16:30:00Z,30.2791,-87.5561,1.095,33.06,1111122 
DISL,ioos:station:DISL:PPTA:1,2013-02-03T17:00:00Z,30.2791,-87.5561,1.099,33.06,1111122 
DISL,ioos:station:DISL:PPTA:1,2013-02-03T17:30:00Z,30.2791,-87.5561,1.127,33.39,1111122 
DISL,ioos:station:DISL:PPTA:1,2013-02-03T18:00:00Z,30.2791,-87.5561,1.143,33.38,1111122 
DISL,ioos:station:DISL:PPTA:1,2013-02-03T18:30:00Z,30.2791,-87.5561,1.141,33.32,1111122 
DISL,ioos:station:DISL:PPTA:1,2013-02-03T19:00:00Z,30.2791,-87.5561,1.16,33.29,1111122 
DISL,ioos:station:DISL:PPTA:1,2013-02-03T19:30:00Z,30.2791,-87.5561,1.172,33.32,1111122 
DISL,ioos:station:DISL:PPTA:1,2013-02-03T20:00:00Z,30.2791,-87.5561,1.168,33.39,1111122 
DISL,ioos:station:DISL:PPTA:1,2013-02-03T20:30:00Z,30.2791,-87.5561,1.176,32.96,1111122 
DISL,ioos:station:DISL:PPTA:1,2013-02-03T21:00:00Z,30.2791,-87.5561,1.182,33.09,1111122 
DISL,ioos:station:DISL:PPTA:1,2013-02-03T21:30:00Z,30.2791,-87.5561,1.17,33.13,1111122 
DISL,ioos:station:DISL:PPTA:1,2013-02-03T22:00:00Z,30.2791,-87.5561,1.175,32.87,1111122 
DISL,ioos:station:DISL:PPTA:1,2013-02-03T22:30:00Z,30.2791,-87.5561,1.179,33.03,1111122 
DISL,ioos:station:DISL:PPTA:1,2013-02-03T23:00:00Z,30.2791,-87.5561,1.166,32.43,1111122 
DISL,ioos:station:DISL:PPTA:1,2013-02-03T23:30:00Z,30.2791,-87.5561,1.16,32.85,1111122 
DISL,ioos:station:DISL:PPTA:1,2013-02-04T00:00:00Z,30.2791,-87.5561,1.156,32.39,1111122 
DISL,ioos:station:DISL:PPTA:1,2013-02-04T00:30:00Z,30.2791,-87.5561,1.133,32.68,1111122 
DISL,ioos:station:DISL:PPTA:1,2013-02-04T01:00:00Z,30.2791,-87.5561,1.121,32.76,1111122 
DISL,ioos:station:DISL:PPTA:1,2013-02-04T01:30:00Z,30.2791,-87.5561,1.106,32.31,1111122 
DISL,ioos:station:DISL:PPTA:1,2013-02-04T02:00:00Z,30.2791,-87.5561,1.093,32.36,1111122 
DISL,ioos:station:DISL:PPTA:1,2013-02-04T02:30:00Z,30.2791,-87.5561,1.081,32.36,1111122 
DISL,ioos:station:DISL:PPTA:1,2013-02-04T03:00:00Z,30.2791,-87.5561,1.058,32.44,1111122 
DISL,ioos:station:DISL:PPTA:1,2013-02-04T03:30:00Z,30.2791,-87.5561,1.063,32.26,1111122 
DISL,ioos:station:DISL:PPTA:1,2013-02-04T04:00:00Z,30.2791,-87.5561,1.042,32.12,1111122 
DISL,ioos:station:DISL:PPTA:1,2013-02-04T04:30:00Z,30.2791,-87.5561,1.011,32.12,1111122 
DISL,ioos:station:DISL:PPTA:1,2013-02-04T05:00:00Z,30.2791,-87.5561,1.007,31.89,1111122 
DISL,ioos:station:DISL:PPTA:1,2013-02-04T05:30:00Z,30.2791,-87.5561,0.994,30.22,1111122 
DISL,ioos:station:DISL:PPTA:1,2013-02-04T06:00:00Z,30.2791,-87.5561,0.993,29.25,1111122 
DISL,ioos:station:DISL:PPTA:1,2013-02-04T06:30:00Z,30.2791,-87.5561,0.979,28.94,1111122 
DISL,ioos:station:DISL:PPTA:1,2013-02-04T07:00:00Z,30.2791,-87.5561,0.979,28.82,1111122 
DISL,ioos:station:DISL:PPTA:1,2013-02-04T07:30:00Z,30.2791,-87.5561,0.97,30.13,1111122 
DISL,ioos:station:DISL:PPTA:1,2013-02-04T08:00:00Z,30.2791,-87.5561,0.953,29.95,1111122 
DISL,ioos:station:DISL:PPTA:1,2013-02-04T08:30:00Z,30.2791,-87.5561,0.948,28.77,1111122 
DISL,ioos:station:DISL:PPTA:1,2013-02-04T09:00:00Z,30.2791,-87.5561,0.951,28.86,1111122 
DISL,ioos:station:DISL:PPTA:1,2013-02-04T09:30:00Z,30.2791,-87.5561,0.949,28.45,1111122 
DISL,ioos:station:DISL:PPTA:1,2013-02-04T10:00:00Z,30.2791,-87.5561,0.961,27.98,1111122 
DISL,ioos:station:DISL:PPTA:1,2013-02-04T10:30:00Z,30.2791,-87.5561,0.971,27.39,1111122 
DISL,ioos:station:DISL:PPTA:1,2013-02-04T11:00:00Z,30.2791,-87.5561,0.992,28.34,1111122 
DISL,ioos:station:DISL:PPTA:1,2013-02-04T11:30:00Z,30.2791,-87.5561,1.005,25.88,1111122 
DISL,ioos:station:DISL:PPTA:1,2013-02-04T12:00:00Z,30.2791,-87.5561,1.011,26.4,1111122 
DISL,ioos:station:DISL:PPTA:1,2013-02-04T12:30:00Z,30.2791,-87.5561,1.022,27.03,1111122 
DISL,ioos:station:DISL:PPTA:1,2013-02-04T13:00:00Z,30.2791,-87.5561,1.012,28.76,1111122 
DISL,ioos:station:DISL:PPTA:1,2013-02-04T13:30:00Z,30.2791,-87.5561,1.03,27.12,1111122 
DISL,ioos:station:DISL:PPTA:1,2013-02-04T14:00:00Z,30.2791,-87.5561,1.033,29.7,1111122 
DISL,ioos:station:DISL:PPTA:1,2013-02-04T14:30:00Z,30.2791,-87.5561,1.047,31.36,1111122 
DISL,ioos:station:DISL:PPTA:1,2013-02-04T15:00:00Z,30.2791,-87.5561,1.073,31.67,1111122 
DISL,ioos:station:DISL:PPTA:1,2013-02-04T15:30:00Z,30.2791,-87.5561,1.078,32.5,1111122 
DISL,ioos:station:DISL:PPTA:1,2013-02-04T16:00:00Z,30.2791,-87.5561,1.095,32.08,1111122 
DISL,ioos:station:DISL:PPTA:1,2013-02-04T16:30:00Z,30.2791,-87.5561,1.116,32.59,1111122 
DISL,ioos:station:DISL:PPTA:1,2013-02-04T17:00:00Z,30.2791,-87.5561,1.133,32.93,1111122 
DISL,ioos:station:DISL:PPTA:1,2013-02-04T17:30:00Z,30.2791,-87.5561,1.161,32.92,1111122 
DISL,ioos:station:DISL:PPTA:1,2013-02-04T18:00:00Z,30.2791,-87.5561,1.167,33.1,1111122 
DISL,ioos:station:DISL:PPTA:1,2013-02-04T18:30:00Z,30.2791,-87.5561,1.188,32.97,1111122 
DISL,ioos:station:DISL:PPTA:1,2013-02-04T19:00:00Z,30.2791,-87.5561,1.208,33.02,1111122 
DISL,ioos:station:DISL:PPTA:1,2013-02-04T19:30:00Z,30.2791,-87.5561,1.211,33.21,1111122 
DISL,ioos:station:DISL:PPTA:1,2013-02-04T20:00:00Z,30.2791,-87.5561,1.233,33.1,1111122 
DISL,ioos:station:DISL:PPTA:1,2013-02-04T20:30:00Z,30.2791,-87.5561,1.242,33.05,1111122 
DISL,ioos:station:DISL:PPTA:1,2013-02-04T21:00:00Z,30.2791,-87.5561,1.261,33.1,1111122 
DISL,ioos:station:DISL:PPTA:1,2013-02-04T21:30:00Z,30.2791,-87.5561,1.272,33.12,1111122 
DISL,ioos:station:DISL:PPTA:1,2013-02-04T22:00:00Z,30.2791,-87.5561,1.269,33.06,1111122 
DISL,ioos:station:DISL:PPTA:1,2013-02-04T22:30:00Z,30.2791,-87.5561,1.282,33.13,1111122 
DISL,ioos:station:DISL:PPTA:1,2013-02-04T23:00:00Z,30.2791,-87.5561,1.288,33.06,1111122 
DISL,ioos:station:DISL:PPTA:1,2013-02-04T23:30:00Z,30.2791,-87.5561,1.295,33.16,1111122 
DISL,ioos:station:DISL:PPTA:1,2013-02-05T00:00:00Z,30.2791,-87.5561,1.283,33.16,1111122 
DISL,ioos:station:DISL:PPTA:1,2013-02-05T00:30:00Z,30.2791,-87.5561,1.289,33.16,1111122 
DISL,ioos:station:DISL:PPTA:1,2013-02-05T01:00:00Z,30.2791,-87.5561,1.299,33.15,1111122 
DISL,ioos:station:DISL:PPTA:1,2013-02-05T01:30:00Z,30.2791,-87.5561,1.276,33.03,1111122 
DISL,ioos:station:DISL:PPTA:1,2013-02-05T02:00:00Z,30.2791,-87.5561,1.246,33.1,1111122 
DISL,ioos:station:DISL:PPTA:1,2013-02-05T02:30:00Z,30.2791,-87.5561,1.217,32.93,1111122 
DISL,ioos:station:DISL:PPTA:1,2013-02-05T03:00:00Z,30.2791,-87.5561,1.21,33.11,1111122 
DISL,ioos:station:DISL:PPTA:1,2013-02-05T03:30:00Z,30.2791,-87.5561,1.214,32.57,1111122 
DISL,ioos:station:DISL:PPTA:1,2013-02-05T04:00:00Z,30.2791,-87.5561,1.204,32.71,1111122 
DISL,ioos:station:DISL:PPTA:1,2013-02-05T04:30:00Z,30.2791,-87.5561,1.177,32.8,1111122 
DISL,ioos:station:DISL:PPTA:1,2013-02-05T05:00:00Z,30.2791,-87.5561,1.147,32.77,1111122 
DISL,ioos:station:DISL:PPTA:1,2013-02-05T05:30:00Z,30.2791,-87.5561,1.14,32.66,1111122 
DISL,ioos:station:DISL:PPTA:1,2013-02-05T06:00:00Z,30.2791,-87.5561,1.144,32.11,1111122 
DISL,ioos:station:DISL:PPTA:1,2013-02-05T06:30:00Z,30.2791,-87.5561,1.123,30.97,1111122 
DISL,ioos:station:DISL:PPTA:1,2013-02-05T07:00:00Z,30.2791,-87.5561,1.109,29.73,1111122 
DISL,ioos:station:DISL:PPTA:1,2013-02-05T07:30:00Z,30.2791,-87.5561,1.091,29.89,1111122 
DISL,ioos:station:DISL:PPTA:1,2013-02-05T08:00:00Z,30.2791,-87.5561,1.097,29.33,1111122 
DISL,ioos:station:DISL:PPTA:1,2013-02-05T08:30:00Z,30.2791,-87.5561,1.065,30.02,1111122 
DISL,ioos:station:DISL:PPTA:1,2013-02-05T09:00:00Z,30.2791,-87.5561,1.031,29.15,1111122 
DISL,ioos:station:DISL:PPTA:1,2013-02-05T09:30:00Z,30.2791,-87.5561,1.043,29.08,1111122 
DISL,ioos:station:DISL:PPTA:1,2013-02-05T10:00:00Z,30.2791,-87.5561,1.034,28.67,1111122 
DISL,ioos:station:DISL:PPTA:1,2013-02-05T10:30:00Z,30.2791,-87.5561,1.085,28.65,1111122 
DISL,ioos:station:DISL:PPTA:1,2013-02-05T11:00:00Z,30.2791,-87.5561,1.102,26.89,1111122 
DISL,ioos:station:DISL:PPTA:1,2013-02-05T11:30:00Z,30.2791,-87.5561,1.086,26.37,1111122 
DISL,ioos:station:DISL:PPTA:1,2013-02-05T12:00:00Z,30.2791,-87.5561,1.104,26.31,1111122 
DISL,ioos:station:DISL:PPTA:1,2013-02-05T12:30:00Z,30.2791,-87.5561,1.118,25.52,1111122 
DISL,ioos:station:DISL:PPTA:1,2013-02-05T13:00:00Z,30.2791,-87.5561,1.109,27.96,1111122 
DISL,ioos:station:DISL:PPTA:1,2013-02-05T13:30:00Z,30.2791,-87.5561,1.148,25.53,1111122 
DISL,ioos:station:DISL:PPTA:1,2013-02-05T14:00:00Z,30.2791,-87.5561,1.17,27.01,1111122 
DISL,ioos:station:DISL:PPTA:1,2013-02-05T14:30:00Z,30.2791,-87.5561,1.188,25.53,1111122 
DISL,ioos:station:DISL:PPTA:1,2013-02-05T15:00:00Z,30.2791,-87.5561,1.178,30.5,1111122 
DISL,ioos:station:DISL:PPTA:1,2013-02-05T15:30:00Z,30.2791,-87.5561,1.172,31.26,1111122 
DISL,ioos:station:DISL:PPTA:1,2013-02-05T16:00:00Z,30.2791,-87.5561,1.196,31.84,1111122 
DISL,ioos:station:DISL:PPTA:1,2013-02-05T16:30:00Z,30.2791,-87.5561,1.202,32.56,1111122 
DISL,ioos:station:DISL:PPTA:1,2013-02-05T17:00:00Z,30.2791,-87.5561,1.232,32.25,1111122 
DISL,ioos:station:DISL:PPTA:1,2013-02-05T17:30:00Z,30.2791,-87.5561,1.269,32.86,1111122 
DISL,ioos:station:DISL:PPTA:1,2013-02-05T18:00:00Z,30.2791,-87.5561,1.278,32.92,1111122 
DISL,ioos:station:DISL:PPTA:1,2013-02-05T18:30:00Z,30.2791,-87.5561,1.306,32.81,1111122 
DISL,ioos:station:DISL:PPTA:1,2013-02-05T19:00:00Z,30.2791,-87.5561,1.32,32.98,1111122 
DISL,ioos:station:DISL:PPTA:1,2013-02-05T19:30:00Z,30.2791,-87.5561,1.347,32.86,1111122 
DISL,ioos:station:DISL:PPTA:1,2013-02-05T20:00:00Z,30.2791,-87.5561,1.372,32.98,1111122 
DISL,ioos:station:DISL:PPTA:1,2013-02-05T20:30:00Z,30.2791,-87.5561,1.376,32.92,1111122 
DISL,ioos:station:DISL:PPTA:1,2013-02-05T21:00:00Z,30.2791,-87.5561,1.403,32.91,1111122 
DISL,ioos:station:DISL:PPTA:1,2013-02-05T21:30:00Z,30.2791,-87.5561,1.406,32.98,1111122 
DISL,ioos:station:DISL:PPTA:1,2013-02-05T22:00:00Z,30.2791,-87.5561,1.406,32.91,1111122 
DISL,ioos:station:DISL:PPTA:1,2013-02-05T22:30:00Z,30.2791,-87.5561,1.418,33.01,1111122 
DISL,ioos:station:DISL:PPTA:1,2013-02-05T23:00:00Z,30.2791,-87.5561,1.422,32.94,1111122 
DISL,ioos:station:DISL:PPTA:1,2013-02-05T23:30:00Z,30.2791,-87.5561,1.429,32.99,1111122 
DISL,ioos:station:DISL:PPTA:1,2013-02-06T00:00:00Z,30.2791,-87.5561,1.465,32.98,1111122 
DISL,ioos:station:DISL:PPTA:1,2013-02-06T00:30:00Z,30.2791,-87.5561,1.425,32.95,1111122 
DISL,ioos:station:DISL:PPTA:1,2013-02-06T01:00:00Z,30.2791,-87.5561,1.441,32.9,1111122 
DISL,ioos:station:DISL:PPTA:1,2013-02-06T01:30:00Z,30.2791,-87.5561,1.432,32.98,1111122 
DISL,ioos:station:DISL:PPTA:1,2013-02-06T02:00:00Z,30.2791,-87.5561,1.417,32.85,1111122 
DISL,ioos:station:DISL:PPTA:1,2013-02-06T02:30:00Z,30.2791,-87.5561,1.403,32.99,1111122 
DISL,ioos:station:DISL:PPTA:1,2013-02-06T03:00:00Z,30.2791,-87.5561,1.353,32.89,1111122 
DISL,ioos:station:DISL:PPTA:1,2013-02-06T03:30:00Z,30.2791,-87.5561,1.354,31.78,1111122 
DISL,ioos:station:DISL:PPTA:1,2013-02-06T04:00:00Z,30.2791,-87.5561,1.324,29.14,1111122 
DISL,ioos:station:DISL:PPTA:1,2013-02-06T04:30:00Z,30.2791,-87.5561,1.316,32.03,1111122 
DISL,ioos:station:DISL:PPTA:1,2013-02-06T05:00:00Z,30.2791,-87.5561,1.307,32.21,1111122 
DISL,ioos:station:DISL:PPTA:1,2013-02-06T05:30:00Z,30.2791,-87.5561,1.275,32.4,1111122 
DISL,ioos:station:DISL:PPTA:1,2013-02-06T06:00:00Z,30.2791,-87.5561,1.257,32.23,1111122 
DISL,ioos:station:DISL:PPTA:1,2013-02-06T06:30:00Z,30.2791,-87.5561,1.245,32.16,1111122 
DISL,ioos:station:DISL:PPTA:1,2013-02-06T07:00:00Z,30.2791,-87.5561,1.225,31.66,1111122 
DISL,ioos:station:DISL:PPTA:1,2013-02-06T07:30:00Z,30.2791,-87.5561,1.212,30.35,1111122 
DISL,ioos:station:DISL:PPTA:1,2013-02-06T08:00:00Z,30.2791,-87.5561,1.196,30.17,1111122 
DISL,ioos:station:DISL:PPTA:1,2013-02-06T08:30:00Z,30.2791,-87.5561,1.188,29.37,1111122 
DISL,ioos:station:DISL:PPTA:1,2013-02-06T09:00:00Z,30.2791,-87.5561,1.174,28.9,1111122 
DISL,ioos:station:DISL:PPTA:1,2013-02-06T09:30:00Z,30.2791,-87.5561,1.151,28.77,1111122 
DISL,ioos:station:DISL:PPTA:1,2013-02-06T10:00:00Z,30.2791,-87.5561,1.14,28.68,1111122 
DISL,ioos:station:DISL:PPTA:1,2013-02-06T10:30:00Z,30.2791,-87.5561,1.134,28.3,1111122 
DISL,ioos:station:DISL:PPTA:1,2013-02-06T11:00:00Z,30.2791,-87.5561,1.137,27.87,1111122 
DISL,ioos:station:DISL:PPTA:1,2013-02-06T11:30:00Z,30.2791,-87.5561,1.142,27.17,1111122 
DISL,ioos:station:DISL:PPTA:1,2013-02-06T12:00:00Z,30.2791,-87.5561,1.136,27.32,1111122 
DISL,ioos:station:DISL:PPTA:1,2013-02-06T12:30:00Z,30.2791,-87.5561,1.134,26.77,1111122 
DISL,ioos:station:DISL:PPTA:1,2013-02-06T13:00:00Z,30.2791,-87.5561,1.166,25.57,1111122 
DISL,ioos:station:DISL:PPTA:1,2013-02-06T13:30:00Z,30.2791,-87.5561,1.16,26.0,1111122 
DISL,ioos:station:DISL:PPTA:1,2013-02-06T14:00:00Z,30.2791,-87.5561,1.194,24.1,1111122 